{"data":{"norad_id":62043,"intl_designator":"2024-216M","name":"STARLINK-32491","alt_names":[],"object_type":"PAYLOAD","status":"ACTIVE","operator":null,"country":"US","launch_date":"2024-11-21","launch_site_code":"AFETR","launch_vehicle":null,"mission":null,"orbit_class":"UNKNOWN","rcs_meters":null,"size_class":null,"mass_kg":null,"dimensions":null,"purposes":["comms"],"wikipedia_slug":null,"has_3d_model":false,"image_url":null,"decayed_at":null,"tle_current":{"epoch":"2026-05-24T19:53:40.722720Z","epoch_age_seconds":99945,"freshness":"FRESH","line1":"1 62043U 24216M   26144.82894355  .00010953  00000+0  40691-3 0  9991","line2":"2 62043  42.9981 193.8093 0001406 273.5225  86.5466 15.27584214 85434","mean_motion":15.27584214,"eccentricity":0.0001406,"inclination_deg":42.9981,"raan_deg":193.8093,"arg_perigee_deg":273.5225,"mean_anomaly_deg":86.5466,"bstar":0.00040691,"rev_number":8543,"period_min":94.266488669017,"perigee_km":482.0717968457,"apogee_km":484.00115882766,"semimajor_km":6861.1734778367,"source":"CELESTRAK","updated_at":"2026-05-25T13:38:19.526020Z"}}}